Regional Weather Roundup
Issued by NWS Midland/Odessa, TX

Home | Current Version | Previous Version | Text Only | Print | Product List | Glossary On
Versions: 1 2 3 4 5 6 7 8 9 10 11 12 13 14 15 16 17 18 19 20 21 22 23 24 25 26 27 28 29 30 31 32 33 34 35 36 37 38 39 40 41 42 43 44 45 46 47 48 49 50
000
ASUS44 KMAF 290710
RWRMAF
MIDLAND AREA WEATHER ROUNDUP
NATIONAL WEATHER SERVICE MIDLAND TX
100 AM CST THU JAN 29 2015

...IN SOUTHWEST TEXAS AND SOUTHEAST NEW MEXICO...

CITY           SKY/WX    TMP DP  RH WIND       PRES   REMARKS
ALPINE         PTCLDY    47  42  82 SW6       30.25F
ANDREWS        FAIR      56  42  60 SW7       30.14F
ARTESIA        PTCLDY    45  39  81 NE8       30.16R
BIG SPRING     PTCLDY    54  42  64 CALM      30.14F
CARLSBAD       PTCLDY    48  37  65 N7        30.12S
DRYDEN           N/A     58  39  49 N7        30.09F
FORT STOCKTON  CLEAR     58  46  64 SW12      30.12F
GUAD PASS      MOCLDY    54  34  46 W14       30.23F
HOBBS          CLEAR     45  37  76 NW10      30.15S WCI  39
MARFA          PTCLDY    41  37  87 NW5       30.23F WCI  38
MIDLAND AIRPK  PTCLDY    62  41  45 S9        30.13F
MIDLAND INTL   MOCLDY    56  43  61 SW3       30.12S
ODESSA         MOCLDY    58  41  53 S8        30.13S
PECOS          PTCLDY    51  44  75 CALM      30.11F
PRESIDIO       FAIR      60  47  62 N7        30.11F
SEMINOLE       PTCLDY    43  37  81 S5        30.17R
SNYDER         PTCLDY   N/A N/A N/A SW8       30.14R
WINK           PTCLDY    53  41  63 SE8       30.10F
$$
...OTHER STATIONS IN TEXAS...

CITY           SKY/WX    TMP DP  RH WIND       PRES   REMARKS
ABILENE        PTCLDY    61  41  47 NW5       30.10R
AMARILLO       CLEAR     44  34  67 N10       30.21R WCI  39
AUSTIN         PTCLDY    48  45  89 S7        30.13F
BROWNSVILLE    PTCLDY    59  57  93 SE7       30.14F
CORPUS CHRISTI PTCLDY    54  54 100 SE8       30.15F
DALLAS FTW     PTCLDY    61  40  45 S12       30.03F
DEL RIO        CLEAR     59  39  47 E9        30.09F
EL PASO        PTCLDY    48  36  63 E5        30.16S
HOUSTON INT    PTCLDY    56  55  97 S3        30.18R
LUBBOCK        MOCLDY    48  34  58 N9        30.15R
SAN ANGELO     CLEAR     53  41  63 S5        30.10S
SAN ANTONIO    PTCLDY    58  54  86 CALM      30.15R
WACO           CLEAR     58  43  57 S9        30.09S
WICHITA FALLS  NOT AVBL
$$
...OTHER LOCATIONS IN NEW MEXICO...

CITY           SKY/WX    TMP DP  RH WIND       PRES   REMARKS
ALAMAGORDO     MOCLDY    46  32  57 N5        30.19F
ALBUQUERQUE    MOCLDY    45  30  55 NE6       30.26S
CANNON AFB     PTCLDY    40  33  77 N6        30.16R WCI  36
CLOVIS         MOCLDY    37  30  75 NE7       30.18R WCI  32
HOLLOMAN AFB   NOT AVBL
ROSWELL        CLEAR     45  37  73 N7        30.16R
RUIDOSO        MOCLDY    43  30  61 SW13      30.30R WCI  36
SANTA FE       CLOUDY    39  27  62 N12       30.27R WCI  32
TRUTH OR CONSE PTCLDY    49  34  56 N8        30.21R
TUCUMCARI      CLOUDY    49  36  61 NE18      30.20R
$$


USA.gov is the U.S. government's official web portal to all federal, state and local government web resources and services.